When you browse on this site, cookies collect data to enhance your experience and personalize the content and advertising you see.
Visit our Privacy Policy to learn more. By continuing to use the site, you agree to this use of cookies and data.
  • In Hungary
  • List of Countries
  • For 7 days
  • Water Temperature
  • Weather Map
  • News
  • Weather Widgets
  • user-avatar
    Login

    Hourly Weather Dubovychi

    Today, 20 August, Tuesday

    Time Temperature Precipitation Wind Pressure Humidity
    00:00 +18°C° 0 mm 1 mps 751 mmHg 73%
    01:00 +18°C° 0 mm 1 mps 751 mmHg 78%
    02:00 +18°C° 0 mm 1 mps 751 mmHg 83%
    03:00 +16°C° 0 mm 1 mps 751 mmHg 84%
    04:00 +16°C° 0 mm 1 mps 751 mmHg 86%
    05:00 +16°C° 0 mm 1 mps 752 mmHg 88%
    06:00 +19°C° 0 mm 1 mps 752 mmHg 81%
    07:00 +21°C° 0 mm 1 mps 752 mmHg 74%
    08:00 +24°C° 0 mm 1 mps 752 mmHg 66%
    09:00 +23°C° 0 mm 0 mps 752 mmHg 60%
    10:00 +25°C° 0 mm 0 mps 752 mmHg 54%
    11:00 +26°C° 0 mm 0 mps 752 mmHg 48%
    12:00 +27°C° 0 mm 0 mps 752 mmHg 46%
    13:00 +29°C° 0 mm 1 mps 752 mmHg 44%
    14:00 +30°C° 0 mm 1 mps 752 mmHg 40%
    15:00 +29°C° 0 mm 1 mps 752 mmHg 44%
    16:00 +29°C° 0 mm 1 mps 752 mmHg 48%
    17:00 +27°C° 0 mm 0 mps 752 mmHg 52%
    18:00 +27°C° 0 mm 1 mps 752 mmHg 54%
    19:00 +25°C° 0 mm 1 mps 752 mmHg 57%
    20:00 +22°C° 0 mm 1 mps 752 mmHg 59%
    21:00 +22°C° 0 mm 1 mps 752 mmHg 61%
    22:00 +21°C° 0 mm 1 mps 752 mmHg 63%
    23:00 +21°C° 0 mm 1 mps 752 mmHg 64%

    Tomorrow, 21 August, Wednesday

    Time Temperature Precipitation Wind Pressure Humidity
    00:00 +20°C° 0 mm 1 mps 752 mmHg 66%
    01:00 +20°C° 0 mm 1 mps 752 mmHg 67%
    02:00 +19°C° 0 mm 1 mps 753 mmHg 68%
    03:00 +19°C° 0 mm 1 mps 753 mmHg 69%
    04:00 +19°C° 0 mm 1 mps 752 mmHg 70%
    05:00 +19°C° 0 mm 1 mps 752 mmHg 71%
    06:00 +21°C° 0 mm 1 mps 753 mmHg 67%
    07:00 +22°C° 0 mm 1 mps 753 mmHg 63%
    08:00 +24°C° 0 mm 2 mps 753 mmHg 59%
    09:00 +25°C° 0 mm 2 mps 753 mmHg 56%
    10:00 +27°C° 0 mm 2 mps 753 mmHg 52%
    11:00 +28°C° 0 mm 2 mps 752 mmHg 48%
    12:00 +29°C° 0 mm 2 mps 752 mmHg 48%
    13:00 +29°C° 0 mm 3 mps 752 mmHg 47%
    14:00 +30°C° 0 mm 3 mps 752 mmHg 47%
    15:00 +29°C° 0 mm 2 mps 752 mmHg 51%
    16:00 +29°C° 0 mm 2 mps 751 mmHg 56%
    17:00 +28°C° 0 mm 2 mps 751 mmHg 60%
    18:00 +27°C° 0 mm 2 mps 751 mmHg 64%
    19:00 +25°C° 0 mm 2 mps 751 mmHg 69%
    20:00 +23°C° 0 mm 2 mps 751 mmHg 73%
    21:00 +21°C° 0 mm 2 mps 751 mmHg 75%
    22:00 +22°C° 0 mm 1 mps 751 mmHg 77%
    23:00 +21°C° 0 mm 1 mps 751 mmHg 79%

    Day after tomorrow, 22 August, Thursday

    Time Temperature Precipitation Wind Pressure Humidity
    00:00 +21°C° 0 mm 1 mps 751 mmHg 81%
    01:00 +20°C° 0 mm 1 mps 751 mmHg 83%
    02:00 +20°C° 0 mm 1 mps 751 mmHg 86%
    03:00 +20°C° 0 mm 1 mps 750 mmHg 86%
    04:00 +20°C° 0 mm 1 mps 750 mmHg 87%
    05:00 +17°C° 0 mm 0 mps 750 mmHg 88%
    06:00 +21°C° 0 mm 1 mps 750 mmHg 82%
    07:00 +23°C° 0 mm 1 mps 750 mmHg 75%
    08:00 +25°C° 0 mm 1 mps 751 mmHg 69%
    09:00 +26°C° 0 mm 1 mps 751 mmHg 65%
    10:00 +27°C° 0 mm 2 mps 751 mmHg 61%
    11:00 +29°C° 0 mm 2 mps 751 mmHg 56%
    12:00 +29°C° 0 mm 2 mps 751 mmHg 55%
    13:00 +29°C° 0 mm 2 mps 750 mmHg 54%
    14:00 +30°C° 0 mm 2 mps 750 mmHg 52%
    15:00 +29°C° 0 mm 2 mps 750 mmHg 56%
    16:00 +29°C° 0 mm 3 mps 750 mmHg 60%
    17:00 +28°C° 0 mm 3 mps 750 mmHg 64%
    18:00 +26°C° 0.1 mm 4 mps 751 mmHg 73%
    19:00 +22°C° 0.1 mm 5 mps 751 mmHg 82%
    20:00 +20°C° 0.1 mm 5 mps 751 mmHg 91%
    21:00 +20°C° 0.1 mm 5 mps 751 mmHg 92%
    22:00 +19°C° 0.1 mm 5 mps 752 mmHg 94%
    23:00 +19°C° 0.1 mm 4 mps 752 mmHg 95%

    23 August, Friday

    Time Temperature Precipitation Wind Pressure Humidity
    00:00 +19°C° 0.1 mm 4 mps 752 mmHg 95%
    01:00 +19°C° 0.1 mm 4 mps 752 mmHg 94%
    02:00 +18°C° 0.1 mm 4 mps 752 mmHg 93%
    03:00 +18°C° 0.1 mm 4 mps 752 mmHg 93%
    04:00 +18°C° 0.1 mm 4 mps 752 mmHg 93%
    05:00 +18°C° 0.1 mm 4 mps 752 mmHg 92%
    06:00 +18°C° 0 mm 4 mps 752 mmHg 91%
    07:00 +18°C° 0 mm 4 mps 752 mmHg 90%
    08:00 +18°C° 0 mm 4 mps 752 mmHg 89%
    09:00 +19°C° 0.1 mm 4 mps 753 mmHg 87%
    10:00 +19°C° 0.1 mm 4 mps 753 mmHg 85%
    11:00 +20°C° 0.1 mm 4 mps 753 mmHg 83%
    12:00 +20°C° 0 mm 4 mps 753 mmHg 81%
    13:00 +20°C° 0 mm 4 mps 753 mmHg 80%
    14:00 +21°C° 0 mm 4 mps 753 mmHg 79%
    15:00 +21°C° 0 mm 4 mps 753 mmHg 78%
    16:00 +21°C° 0 mm 4 mps 753 mmHg 77%
    17:00 +21°C° 0 mm 5 mps 753 mmHg 76%
    18:00 +20°C° 0 mm 4 mps 753 mmHg 78%
    19:00 +19°C° 0 mm 4 mps 753 mmHg 81%
    20:00 +18°C° 0 mm 4 mps 753 mmHg 83%
    21:00 +17°C° 0 mm 4 mps 753 mmHg 84%
    22:00 +17°C° 0 mm 3 mps 753 mmHg 86%
    23:00 +16°C° 0 mm 3 mps 753 mmHg 87%

    24 August, Saturday

    Time Temperature Precipitation Wind Pressure Humidity
    00:00 +16°C° 0 mm 3 mps 753 mmHg 89%
    01:00 +14°C° 0 mm 3 mps 753 mmHg 91%
    02:00 +14°C° 0 mm 3 mps 753 mmHg 93%
    03:00 +14°C° 0 mm 3 mps 754 mmHg 93%
    04:00 +13°C° 0 mm 3 mps 754 mmHg 93%
    05:00 +13°C° 0 mm 3 mps 754 mmHg 94%
    06:00 +14°C° 0 mm 4 mps 754 mmHg 86%
    07:00 +17°C° 0 mm 4 mps 754 mmHg 78%
    08:00 +19°C° 0 mm 4 mps 754 mmHg 70%
    09:00 +20°C° 0 mm 4 mps 754 mmHg 64%
    10:00 +22°C° 0 mm 4 mps 754 mmHg 59%
    11:00 +23°C° 0 mm 4 mps 754 mmHg 53%
    12:00 +25°C° 0 mm 4 mps 754 mmHg 50%
    13:00 +25°C° 0 mm 3 mps 753 mmHg 47%
    14:00 +26°C° 0 mm 3 mps 753 mmHg 44%
    15:00 +25°C° 0 mm 3 mps 753 mmHg 47%
    16:00 +25°C° 0 mm 2 mps 753 mmHg 51%
    17:00 +24°C° 0 mm 2 mps 753 mmHg 54%
    18:00 +21°C° 0 mm 2 mps 752 mmHg 58%
    19:00 +19°C° 0 mm 2 mps 752 mmHg 62%
    20:00 +17°C° 0 mm 2 mps 752 mmHg 66%
    21:00 +16°C° 0 mm 1 mps 752 mmHg 68%
    22:00 +16°C° 0 mm 1 mps 753 mmHg 70%
    23:00 +15°C° 0 mm 1 mps 753 mmHg 72%

    25 August, Sunday

    Time Temperature Precipitation Wind Pressure Humidity
    00:00 +15°C° 0 mm 1 mps 753 mmHg 73%
    01:00 +14°C° 0 mm 1 mps 752 mmHg 74%
    02:00 +14°C° 0 mm 1 mps 752 mmHg 75%
    03:00 +14°C° 0 mm 1 mps 752 mmHg 77%
    04:00 +13°C° 0 mm 1 mps 752 mmHg 78%
    05:00 +13°C° 0 mm 1 mps 752 mmHg 80%
    06:00 +15°C° 0 mm 2 mps 752 mmHg 75%
    07:00 +17°C° 0 mm 2 mps 752 mmHg 69%
    08:00 +19°C° 0 mm 2 mps 752 mmHg 64%
    09:00 +21°C° 0 mm 2 mps 753 mmHg 60%
    10:00 +23°C° 0 mm 2 mps 753 mmHg 55%
    11:00 +24°C° 0 mm 3 mps 753 mmHg 50%
    12:00 +25°C° 0 mm 3 mps 753 mmHg 49%
    13:00 +26°C° 0 mm 3 mps 752 mmHg 47%
    14:00 +26°C° 0 mm 3 mps 752 mmHg 45%
    15:00 +26°C° 0 mm 3 mps 752 mmHg 48%
    16:00 +25°C° 0 mm 2 mps 752 mmHg 52%
    17:00 +25°C° 0 mm 2 mps 752 mmHg 56%
    18:00 +23°C° 0 mm 2 mps 752 mmHg 62%
    19:00 +20°C° 0 mm 2 mps 752 mmHg 68%
    20:00 +18°C° 0 mm 2 mps 752 mmHg 74%
    21:00 +17°C° 0 mm 2 mps 752 mmHg 79%
    22:00 +17°C° 0 mm 2 mps 753 mmHg 84%
    23:00 +16°C° 0 mm 2 mps 753 mmHg 88%
    Show more